DW9945 Weather Reports


time (UTC)temp
C
wind
direction
speed
KPH
gust
KPH
rain 1hr
cm
rain 24hr
cm
rain mn
cm
humidity
%
barometer
mb
20260505171507 16 295 14.5 24.1 0.00 0.00 0.00 34 1011.4
20260505171018 17 310 19.3 25.7 0.00 0.00 0.00 34 1011.4
20260505170518 16 297 16.1 27.4 0.00 0.00 0.00 34 1011.4
20260505170019 17 289 20.9 32.2 0.00 0.00 0.00 33 1011.3
20260505165518 17 300 19.3 25.7 0.00 0.00 0.00 32 1011.3
20260505165018 17 288 17.7 25.7 0.00 0.00 0.00 32 1011.3
20260505164519 17 303 20.9 27.4 0.00 0.00 0.00 32 1011.3
20260505164020 17 287 20.9 27.4 0.00 0.00 0.00 32 1011.3
20260505163018 17 317 14.5 20.9 0.00 0.00 0.00 33 1011.3
20260505162517 17 292 14.5 24.1 0.00 0.00 0.00 30 1011.3
20260505162017 17 288 16.1 25.7 0.00 0.00 0.00 32 1011.4
20260505161517 17 291 19.3 32.2 0.00 0.00 0.00 33 1011.3
20260505153017 17 303 19.3 29.0 0.00 0.00 0.00 33 1011.2
20260505152517 17 286 16.1 25.7 0.00 0.00 0.00 35 1011.3
20260505152018 17 278 14.5 24.1 0.00 0.00 0.00 33 1011.3
20260505151518 17 282 16.1 29.0 0.00 0.00 0.00 32 1011.4
20260505151018 17 280 11.3 32.2 0.00 0.00 0.00 34 1011.4
20260505150518 17 297 22.5 32.2 0.00 0.00 0.00 34 1011.4
20260505140518 17 260 9.7 25.7 0.00 0.00 0.00 35 1011.7
20260505125017 16 297 11.3 24.1 0.00 0.00 0.00 42 1012.3
20260505124506 16 287 14.5 24.1 0.00 0.00 0.00 40 1012.2
20260505124017 17 268 9.7 22.5 0.00 0.00 0.00 37 1012.2
20260505123506 17 224 12.9 19.3 0.00 0.00 0.00 38 1012.3
20260505122506 17 287 11.3 24.1 0.00 0.00 0.00 40 1012.3
20260505122017 16 279 4.8 19.3 0.00 0.00 0.00 42 1012.2
20260505121517 16 303 16.1 20.9 0.00 0.00 0.00 45 1012.4
20260505120517 16 240 9.7 20.9 0.00 0.00 0.00 40 1012.4
20260505120018 16 245 11.3 24.1 0.00 0.00 0.00 40 1012.5
20260505114517 16 253 14.5 22.5 0.00 0.00 0.00 41 1012.5
20260505114017 16 259 9.7 19.3 0.00 0.00 0.00 43 1012.5
20260505113518 16 233 14.5 20.9 0.00 0.00 0.00 42 1012.5
20260505113018 16 282 8.0 20.9 0.00 0.00 0.00 44 1012.6
20260505112517 16 229 8.0 22.5 0.00 0.00 0.00 44 1012.7
20260505112017 15 235 11.3 19.3 0.00 0.00 0.00 44 1012.8
20260505111518 15 228 12.9 20.9 0.00 0.00 0.00 44 1012.7
20260505111017 16 296 14.5 19.3 0.00 0.00 0.00 43 1012.7
20260505110517 16 199 11.3 19.3 0.00 0.00 0.00 43 1012.7
20260505102019 15 204 8.0 19.3 0.00 0.00 0.00 50 1013.2
20260505101519 15 193 11.3 22.5 0.00 0.00 0.00 50 1013.2
20260505101019 15 202 4.8 19.3 0.00 0.00 0.00 48 1013.1
20260505100519 15 233 8.0 14.5 0.00 0.00 0.00 47 1013.2
20260505100019 15 202 6.4 11.3 0.00 0.00 0.00 49 1013.1
20260505095519 14 87 6.4 14.5 0.00 0.00 0.00 49 1013.1
20260505095008 14 18 1.6 4.8 0.00 0.00 0.00 50 1013.0
20260505094519 14 296 4.8 9.7 0.00 0.00 0.00 51 1013.0
20260505094019 14 290 4.8 9.7 0.00 0.00 0.00 50 1013.0
20260505093508 14 266 4.8 12.9 0.00 0.00 0.00 50 1013.1
20260505093019 14 173 3.2 9.7 0.00 0.00 0.00 52 1013.0
20260505092519 14 67 4.8 9.7 0.00 0.00 0.00 53 1013.1
20260505092019 14 169 4.8 11.3 0.00 0.00 0.00 54 1013.1
20260505091519 14 156 3.2 9.7 0.00 0.00 0.00 55 1013.1
20260505091019 13 194 6.4 11.3 0.00 0.00 0.00 55 1013.1
20260505090519 13 210 3.2 4.8 0.00 0.00 0.00 55 1013.2
20260505090018 13 152 3.2 8.0 0.00 0.00 0.00 55 1013.2
20260505085519 13 63 4.8 9.7 0.00 0.00 0.00 55 1013.2
20260505085018 13 133 4.8 11.3 0.00 0.00 0.00 56 1013.2
20260505084519 13 180 1.6 9.7 0.00 0.00 0.00 57 1013.3
20260505084019 13 83 3.2 4.8 0.00 0.00 0.00 59 1013.3
20260505083519 12 74 4.8 8.0 0.00 0.00 0.00 59 1013.3
20260505082019 12 31 4.8 8.0 0.00 0.00 0.00 61 1013.5
20260505081519 12 112 1.6 9.7 0.00 0.00 0.00 61 1013.4
20260505081019 12 45 3.2 8.0 0.00 0.00 0.00 62 1013.3
20260505080019 12 70 4.8 12.9 0.00 0.00 0.00 62 1013.4
20260505075519 12 149 3.2 12.9 0.00 0.00 0.00 64 1013.4
20260505074519 11 178 1.6 9.7 0.00 0.00 0.00 67 1013.3
20260505074019 11 86 3.2 4.8 0.00 0.00 0.00 67 1013.3
20260505073519 11 71 4.8 9.7 0.00 0.00 0.00 67 1013.3
20260505073018 11 113 4.8 11.3 0.00 0.00 0.00 67 1013.3
20260505072018 11 104 1.6 4.8 0.00 0.00 0.00 69 1013.3
20260505071519 11 158 0.0 0.0 0.00 0.00 0.00 72 1013.2
20260505071018 10 158 0.0 0.0 0.00 0.00 0.00 72 1013.2
20260505070519 10 158 0.0 0.0 0.00 0.00 0.00 73 1013.1
20260505070019 10 158 0.0 0.0 0.00 0.00 0.00 78 1013.2
20260505065519 10 158 0.0 0.0 0.00 0.00 0.00 83 1013.2
20260505065019 10 158 0.0 0.0 0.00 0.00 0.00 84 1013.3
20260505064508 10 158 0.0 0.0 0.00 0.00 0.00 83 1013.2
20260505064019 10 158 0.0 0.0 0.00 0.00 0.00 82 1013.1
20260505063519 9 158 0.0 0.0 0.00 0.00 0.00 82 1013.1
20260505063019 9 158 0.0 0.0 0.00 0.00 0.00 84 1013.1
20260505062519 9 158 0.0 0.0 0.00 0.00 0.00 83 1013.1
20260505062019 9 158 0.0 0.0 0.00 0.00 0.00 82 1013.1
20260505061519 8 158 0.0 0.0 0.00 0.00 0.00 82 1013.1
20260505061018 8 158 0.0 0.0 0.00 0.00 0.00 83 1013.1
20260505060019 8 158 0.0 0.0 0.00 0.00 0.00 83 1013.1
20260505055519 8 158 0.0 0.0 0.00 0.00 0.00 82 1012.9
20260505054519 8 158 0.0 0.0 0.00 0.00 0.00 82 1012.9
20260505053519 8 158 0.0 0.0 0.00 0.00 0.00 81 1012.9
20260505052518 8 158 0.0 0.0 0.00 0.00 0.00 81 1012.8
20260505052018 8 158 0.0 0.0 0.00 0.00 0.00 80 1012.8
20260505051508 9 158 0.0 0.0 0.00 0.00 0.00 79 1012.8
20260505051019 9 158 0.0 0.0 0.00 0.00 0.00 78 1012.8
20260505041519 10 273 0.0 0.0 0.00 0.00 0.00 79 1012.9
20260505041018 10 273 0.0 4.8 0.00 0.00 0.00 79 1012.8
20260505040518 10 82 0.0 3.2 0.00 0.00 0.00 77 1012.7
20260505040007 10 82 0.0 4.8 0.00 0.00 0.00 78 1012.7
20260505035518 10 72 3.2 4.8 0.00 0.00 0.00 79 1012.6
20260505035019 10 46 0.0 0.0 0.00 0.00 0.00 79 1012.6
20260505034519 10 46 0.0 0.0 0.00 0.00 0.00 79 1012.7
20260505034018 10 46 0.0 0.0 0.00 0.00 0.00 79 1012.6
20260505033508 10 46 1.6 4.8 0.00 0.00 0.00 78 1012.6
20260505033019 10 97 0.0 0.0 0.00 0.00 0.00 77 1012.7
20260505032519 10 97 0.0 0.0 0.00 0.00 0.00 76 1012.8
20260505032019 10 97 0.0 0.0 0.00 0.00 0.00 76 1012.8
20260505031018 10 113 0.0 0.0 0.00 0.00 0.00 76 1012.8
20260505030018 10 113 0.0 0.0 0.00 0.00 0.00 76 1012.9
20260505025519 10 113 0.0 4.8 0.00 0.00 0.00 77 1012.8
20260505025007 10 114 3.2 9.7 0.00 0.00 0.00 77 1012.9
20260505024519 9 29 0.0 0.0 0.00 0.00 0.00 77 1012.9
20260505024007 9 283 1.6 4.8 0.00 0.00 0.00 78 1012.9
20260505023519 10 284 1.6 4.8 0.00 0.00 0.00 78 1012.9
20260505023018 10 13 0.0 0.0 0.00 0.00 0.00 77 1012.9
20260505022019 9 13 0.0 0.0 0.00 0.00 0.00 79 1012.9
20260505021518 10 13 0.0 0.0 0.00 0.00 0.00 79 1012.9
20260505021018 10 13 0.0 0.0 0.00 0.00 0.00 80 1013.0
20260505020019 10 13 0.0 0.0 0.00 0.00 0.00 79 1012.9
20260505015518 10 13 0.0 0.0 0.00 0.00 0.00 81 1012.8
20260505015018 10 13 0.0 0.0 0.00 0.00 0.00 80 1012.9
20260505014019 10 13 0.0 0.0 0.00 0.00 0.00 79 1012.9
20260505013519 10 13 0.0 0.0 0.00 0.00 0.00 79 1013.0
20260505013019 10 13 0.0 0.0 0.00 0.00 0.00 79 1013.1
20260505012518 10 13 0.0 0.0 0.00 0.00 0.00 79 1013.1
20260505012018 10 13 1.6 4.8 0.00 0.00 0.00 79 1013.1
20260505011518 10 13 1.6 4.8 0.00 0.00 0.00 80 1013.1
20260505010520 10 25 3.2 4.8 0.00 0.00 0.00 81 1013.2
20260505005007 9 25 0.0 0.0 0.00 0.00 0.00 80 1013.4
20260505004508 9 25 1.6 4.8 0.00 0.00 0.00 80 1013.3
20260505004007 9 25 4.8 4.8 0.00 0.00 0.00 80 1013.4
20260505003508 9 25 4.8 4.8 0.00 0.00 0.00 81 1013.4
20260505003007 8 25 3.2 4.8 0.00 0.00 0.00 81 1013.3
20260505002507 8 25 3.2 4.8 0.00 0.00 0.00 80 1013.2
20260505002008 8 12 3.2 4.8 0.00 0.00 0.00 79 1013.3
20260505001507 8 9 4.8 4.8 0.00 0.00 0.00 80 1013.2
20260505001008 8 13 3.2 4.8 0.00 0.00 0.00 79 1013.2
20260505000507 9 24 0.0 0.0 0.00 0.00 0.00 78 1013.2
20260504235509 10 313 0.0 0.0 0.00 0.00 0.00 76 1013.2
20260504235008 10 313 0.0 0.0 0.00 0.00 0.00 74 1013.2
20260504234508 10 273 0.0 0.0 0.00 0.00 0.00 74 1013.2
20260504234007 10 273 0.0 0.0 0.00 0.00 0.00 74 1013.3
20260504233507 10 273 0.0 1.6 0.00 0.00 0.00 74 1013.3
20260504233008 10 273 1.6 4.8 0.00 0.00 0.00 73 1013.4
20260504232507 10 319 0.0 0.0 0.00 0.00 0.00 73 1013.2
20260504231507 10 319 0.0 0.0 0.00 0.00 0.00 73 1013.1
20260504231007 10 319 0.0 0.0 0.00 0.00 0.00 73 1013.1
20260504230507 10 319 0.0 0.0 0.00 0.00 0.00 73 1013.0
20260504230007 10 319 0.0 0.0 0.00 0.00 0.00 73 1012.9
20260504225507 10 319 0.0 0.0 0.00 0.00 0.00 73 1013.0
20260504225007 10 319 0.0 1.6 0.00 0.00 0.00 72 1013.0
20260504224508 10 319 0.0 1.6 0.00 0.00 0.00 73 1013.1
20260504224008 10 319 0.0 0.0 0.00 0.00 0.00 74 1013.1
20260504223007 10 319 3.2 4.8 0.00 0.00 0.00 75 1013.1
20260504222507 10 319 3.2 4.8 0.00 0.00 0.00 75 1013.1
20260504222007 10 303 3.2 4.8 0.00 0.00 0.00 73 1013.1
20260504221507 11 281 0.0 4.8 0.00 0.00 0.00 72 1013.2
20260504221007 11 281 1.6 4.8 0.00 0.00 0.00 70 1013.2
20260504220507 11 282 3.2 4.8 0.00 0.00 0.00 70 1013.3
20260504220008 11 298 4.8 9.7 0.00 0.00 0.00 71 1013.3
20260504215507 11 288 4.8 8.0 0.00 0.00 0.00 72 1013.3
20260504214008 11 298 1.6 3.2 0.00 0.00 0.00 72 1013.4
20260504213507 11 298 0.0 0.0 0.00 0.00 0.00 72 1013.4
20260504213007 11 298 0.0 0.0 0.00 0.00 0.00 72 1013.3
20260504212507 11 298 0.0 3.2 0.00 0.00 0.00 72 1013.2
20260504212007 11 298 1.6 3.2 0.00 0.00 0.00 71 1013.2
20260504211507 11 298 0.0 0.0 0.00 0.00 0.00 72 1013.1
20260504211007 11 298 0.0 3.2 0.00 0.00 0.00 72 1013.1
20260504210507 11 298 3.2 4.8 0.00 0.00 0.00 72 1013.2
20260504210008 11 298 0.0 0.0 0.00 0.00 0.00 70 1013.1
20260504205507 11 298 0.0 0.0 0.00 0.00 0.00 70 1013.0
20260504205007 11 298 0.0 3.2 0.00 0.00 0.00 70 1013.0
20260504204507 11 298 3.2 4.8 0.00 0.00 0.00 70 1013.0
20260504204007 11 298 4.8 4.8 0.00 0.00 0.00 69 1013.0
20260504203507 11 309 4.8 8.0 0.00 0.00 0.00 70 1013.0
20260504203008 11 301 6.4 8.0 0.00 0.00 0.00 69 1012.9
20260504202507 12 307 8.0 8.0 0.00 0.00 0.00 69 1012.9
20260504202006 12 304 6.4 12.9 0.00 0.00 0.00 66 1012.9
20260504201508 12 290 8.0 14.5 0.00 0.00 0.00 66 1012.8
20260504201007 12 284 9.7 16.1 0.00 0.00 0.00 66 1012.8
20260504200507 12 286 9.7 14.5 0.00 0.00 0.00 67 1012.8
20260504200008 12 284 4.8 11.3 0.00 0.00 0.00 68 1012.7
20260504195507 12 283 8.0 11.3 0.00 0.00 0.00 66 1012.6
20260504195007 12 297 4.8 8.0 0.00 0.00 0.00 66 1012.3
20260504194507 12 302 4.8 8.0 0.00 0.00 0.00 67 1012.2
20260504194007 12 297 8.0 12.9 0.00 0.00 0.00 66 1012.2
20260504193507 12 300 6.4 11.3 0.00 0.00 0.00 67 1011.9
20260504193007 12 306 4.8 8.0 0.00 0.00 0.00 66 1011.7
20260504192507 12 307 4.8 8.0 0.00 0.00 0.00 66 1011.7
20260504191007 13 308 8.0 11.3 0.00 0.00 0.00 63 1011.8
20260504190507 13 308 8.0 12.9 0.00 0.00 0.00 61 1011.8
20260504190007 14 306 9.7 19.3 0.00 0.00 0.00 59 1011.7
20260504185507 14 306 12.9 20.9 0.00 0.00 0.00 58 1011.7
20260504185007 14 296 12.9 20.9 0.00 0.00 0.00 57 1011.7
20260504184508 14 294 9.7 19.3 0.00 0.00 0.00 59 1011.7
20260504183507 15 311 11.3 19.3 0.00 0.00 0.00 57 1011.6
20260504183007 15 321 14.5 22.5 0.00 0.00 0.00 55 1011.6
20260504182506 15 317 17.7 22.5 0.00 0.00 0.00 54 1011.5
20260504182006 15 317 17.7 27.4 0.00 0.00 0.00 55 1011.4
20260504181508 16 320 19.3 27.4 0.00 0.00 0.00 53 1011.4
20260504181007 16 321 19.3 24.1 0.00 0.00 0.00 53 1011.3
20260504180507 16 321 17.7 27.4 0.00 0.00 0.00 54 1011.3
20260504180008 16 318 17.7 24.1 0.00 0.00 0.00 52 1011.2
20260504175506 16 312 20.9 29.0 0.00 0.00 0.00 51 1011.1
20260504174507 16 285 17.7 25.7 0.00 0.00 0.00 51 1011.2
20260504174007 16 328 14.5 24.1 0.00 0.00 0.00 51 1011.1
20260504173507 17 306 16.1 22.5 0.00 0.00 0.00 51 1011.2
20260504173007 17 296 14.5 24.1 0.00 0.00 0.00 53 1011.0
20260504172007 17 311 20.9 29.0 0.00 0.00 0.00 50 1011.0